Time,TemperatureF,DewpointF,PressureIn,WindDirection,WindDirectionDegrees,WindSpeedMPH,WindSpeedGustMPH,Humidity,HourlyPrecipIn,Conditions,Clouds,dailyrainin,SoftwareType,DateUTC
2013-10-27 00:02:00,30.1,28.3,30.00,NW,304,0.0,-999.0,93,0.00,,,0.00,WeatherSnoop3.0,2013-10-27 04:02:00,
2013-10-27 00:07:00,30.1,28.3,30.00,NW,304,0.0,-999.0,93,0.00,,,0.00,WeatherSnoop3.0,2013-10-27 04:07:00,
2013-10-27 00:12:00,30.1,28.3,30.01,NW,304,0.0,-999.0,93,0.00,,,0.00,WeatherSnoop3.0,2013-10-27 04:12:00,
2013-10-27 00:17:00,30.3,28.5,30.00,NW,304,0.0,-999.0,93,0.00,,,0.00,WeatherSnoop3.0,2013-10-27 04:17:00,
2013-10-27 00:22:00,30.4,28.6,30.00,NW,304,0.0,-999.0,93,0.00,,,0.00,WeatherSnoop3.0,2013-10-27 04:22:00,
2013-10-27 00:27:00,30.4,28.6,30.00,NW,304,0.0,-999.0,93,0.00,,,0.00,WeatherSnoop3.0,2013-10-27 04:27:00,
2013-10-27 00:32:00,30.6,29.1,29.99,NW,304,0.0,-999.0,94,0.00,,,0.00,WeatherSnoop3.0,2013-10-27 04:32:00,
2013-10-27 00:37:00,30.9,29.4,29.99,NW,304,0.0,-999.0,94,0.00,,,0.00,WeatherSnoop3.0,2013-10-27 04:37:00,
2013-10-27 00:42:00,31.0,29.5,29.99,NW,304,0.0,-999.0,94,0.00,,,0.00,WeatherSnoop3.0,2013-10-27 04:42:00,
2013-10-27 00:47:00,31.0,29.2,29.99,NW,304,0.0,-999.0,93,0.00,,,0.00,WeatherSnoop3.0,2013-10-27 04:47:00,
2013-10-27 00:52:00,31.0,29.2,29.99,NW,304,1.0,-999.0,93,0.00,,,0.00,WeatherSnoop3.0,2013-10-27 04:52:00,
2013-10-27 00:57:00,30.9,29.1,29.99,NW,304,1.0,-999.0,93,0.00,,,0.00,WeatherSnoop3.0,2013-10-27 04:57:00,
2013-10-27 01:02:00,30.7,28.9,29.99,NW,304,0.0,-999.0,93,0.00,,,0.00,WeatherSnoop3.0,2013-10-27 05:02:00,
2013-10-27 01:07:00,30.6,28.8,29.99,NW,304,0.0,-999.0,93,0.00,,,0.00,WeatherSnoop3.0,2013-10-27 05:07:00,
2013-10-27 01:12:00,30.4,28.6,29.99,NW,304,0.0,-999.0,93,0.00,,,0.00,WeatherSnoop3.0,2013-10-27 05:12:00,
2013-10-27 01:17:00,30.4,28.6,29.99,NW,304,0.0,-999.0,93,0.00,,,0.00,WeatherSnoop3.0,2013-10-27 05:17:00,
2013-10-27 01:22:00,30.6,28.8,29.99,NW,304,0.0,-999.0,93,0.00,,,0.00,WeatherSnoop3.0,2013-10-27 05:22:00,
2013-10-27 01:27:00,30.7,28.9,29.99,NW,304,1.0,-999.0,93,0.00,,,0.00,WeatherSnoop3.0,2013-10-27 05:27:00,
2013-10-27 01:32:00,30.9,29.1,29.99,NW,304,0.0,-999.0,93,0.00,,,0.00,WeatherSnoop3.0,2013-10-27 05:32:00,
2013-10-27 01:37:00,31.0,29.2,29.99,NW,304,0.0,-999.0,93,0.00,,,0.00,WeatherSnoop3.0,2013-10-27 05:37:00,
2013-10-27 01:42:00,31.0,29.2,29.99,NW,304,0.0,-999.0,93,0.00,,,0.00,WeatherSnoop3.0,2013-10-27 05:42:00,
2013-10-27 01:47:00,31.0,29.2,29.99,NW,304,0.0,-999.0,93,0.00,,,0.00,WeatherSnoop3.0,2013-10-27 05:47:00,
2013-10-27 01:52:00,31.0,29.2,29.99,NW,304,0.0,-999.0,93,0.00,,,0.00,WeatherSnoop3.0,2013-10-27 05:52:00,
2013-10-27 01:57:00,31.0,29.0,29.99,NW,304,0.0,-999.0,92,0.00,,,0.00,WeatherSnoop3.0,2013-10-27 05:57:00,
2013-10-27 02:02:00,30.9,28.9,29.98,NW,304,0.0,-999.0,92,0.00,,,0.00,WeatherSnoop3.0,2013-10-27 06:02:00,
2013-10-27 02:07:00,30.9,28.9,29.98,NW,304,1.0,-999.0,92,0.00,,,0.00,WeatherSnoop3.0,2013-10-27 06:07:00,
2013-10-27 02:12:00,30.7,28.7,29.98,NW,304,1.0,-999.0,92,0.00,,,0.00,WeatherSnoop3.0,2013-10-27 06:12:00,
2013-10-27 02:17:00,31.0,29.0,29.98,West,274,1.0,-999.0,92,0.00,,,0.00,WeatherSnoop3.0,2013-10-27 06:17:00,
2013-10-27 02:22:00,31.3,29.3,29.98,WSW,254,4.0,-999.0,92,0.00,,,0.00,WeatherSnoop3.0,2013-10-27 06:22:00,
2013-10-27 02:27:00,31.9,29.6,29.98,WSW,242,2.0,-999.0,91,0.00,,,0.00,WeatherSnoop3.0,2013-10-27 06:27:00,
2013-10-27 02:32:00,32.5,29.6,29.98,WSW,243,0.0,-999.0,89,0.00,,,0.00,WeatherSnoop3.0,2013-10-27 06:32:00,
2013-10-27 02:37:00,32.7,29.5,29.98,WSW,243,0.0,-999.0,88,0.00,,,0.00,WeatherSnoop3.0,2013-10-27 06:37:00,
2013-10-27 02:42:00,32.8,29.4,29.98,WSW,243,4.0,-999.0,87,0.00,,,0.00,WeatherSnoop3.0,2013-10-27 06:42:00,
2013-10-27 02:47:00,32.9,29.2,29.98,WSW,244,4.0,-999.0,86,0.00,,,0.00,WeatherSnoop3.0,2013-10-27 06:47:00,
2013-10-27 02:52:00,32.9,29.2,29.98,WSW,244,0.0,-999.0,86,0.00,,,0.00,WeatherSnoop3.0,2013-10-27 06:52:00,
2013-10-27 02:57:00,33.1,29.4,29.98,WSW,246,2.0,-999.0,86,0.00,,,0.00,WeatherSnoop3.0,2013-10-27 06:57:00,
2013-10-27 03:02:00,33.1,29.4,29.98,West,267,1.0,-999.0,86,0.00,,,0.00,WeatherSnoop3.0,2013-10-27 07:02:00,
2013-10-27 03:07:00,33.2,29.2,29.98,SW,232,4.0,-999.0,85,0.00,,,0.00,WeatherSnoop3.0,2013-10-27 07:07:00,
2013-10-27 03:12:00,33.7,28.8,29.97,WSW,253,2.0,-999.0,82,0.00,,,0.00,WeatherSnoop3.0,2013-10-27 07:12:00,
2013-10-27 03:17:00,33.8,28.6,29.97,WSW,254,3.0,-999.0,81,0.00,,,0.00,WeatherSnoop3.0,2013-10-27 07:17:00,
2013-10-27 03:22:00,34.0,28.2,29.97,WSW,254,2.0,-999.0,79,0.00,,,0.00,WeatherSnoop3.0,2013-10-27 07:22:00,
2013-10-27 03:27:00,34.0,28.2,29.97,WSW,254,4.0,-999.0,79,0.00,,,0.00,WeatherSnoop3.0,2013-10-27 07:27:00,
2013-10-27 03:32:00,34.0,28.2,29.97,WNW,288,1.0,-999.0,79,0.00,,,0.00,WeatherSnoop3.0,2013-10-27 07:32:00,
2013-10-27 03:37:00,34.0,28.2,29.97,WNW,288,3.0,-999.0,79,0.00,,,0.00,WeatherSnoop3.0,2013-10-27 07:37:00,
2013-10-27 03:42:00,33.8,28.3,29.97,WSW,244,0.0,-999.0,80,0.00,,,0.00,WeatherSnoop3.0,2013-10-27 07:42:00,
2013-10-27 03:47:00,33.5,28.0,29.97,WSW,245,2.0,-999.0,80,0.00,,,0.00,WeatherSnoop3.0,2013-10-27 07:47:00,
2013-10-27 03:52:00,33.5,28.3,29.97,WSW,245,0.0,-999.0,81,0.00,,,0.00,WeatherSnoop3.0,2013-10-27 07:52:00,
2013-10-27 03:57:00,33.2,28.3,29.97,WSW,245,0.0,-999.0,82,0.00,,,0.00,WeatherSnoop3.0,2013-10-27 07:57:00,
2013-10-27 04:02:00,33.1,28.2,29.98,WSW,245,2.0,-999.0,82,0.00,,,0.00,WeatherSnoop3.0,2013-10-27 08:02:00,
2013-10-27 04:07:00,32.9,28.3,29.97,WSW,245,1.0,-999.0,83,0.00,,,0.00,WeatherSnoop3.0,2013-10-27 08:07:00,
2013-10-27 04:12:00,32.9,28.3,29.96,WSW,245,0.0,-999.0,83,0.00,,,0.00,WeatherSnoop3.0,2013-10-27 08:12:00,
2013-10-27 04:17:00,32.7,28.4,29.97,WSW,245,2.0,-999.0,84,0.00,,,0.00,WeatherSnoop3.0,2013-10-27 08:17:00,
2013-10-27 04:22:00,32.7,28.4,29.97,WSW,244,1.0,-999.0,84,0.00,,,0.00,WeatherSnoop3.0,2013-10-27 08:22:00,
2013-10-27 04:27:00,32.7,28.4,29.97,WSW,244,1.0,-999.0,84,0.00,,,0.00,WeatherSnoop3.0,2013-10-27 08:27:00,
2013-10-27 04:32:00,32.7,28.7,29.97,WSW,244,0.0,-999.0,85,0.00,,,0.00,WeatherSnoop3.0,2013-10-27 08:32:00,
2013-10-27 04:37:00,32.7,28.7,29.97,WSW,244,2.0,-999.0,85,0.00,,,0.00,WeatherSnoop3.0,2013-10-27 08:37:00,
2013-10-27 04:42:00,32.8,28.5,29.97,WSW,244,1.0,-999.0,84,0.00,,,0.00,WeatherSnoop3.0,2013-10-27 08:42:00,
2013-10-27 04:47:00,32.8,28.5,29.96,WSW,244,0.0,-999.0,84,0.00,,,0.00,WeatherSnoop3.0,2013-10-27 08:47:00,
2013-10-27 04:52:00,32.7,28.7,29.96,WSW,244,0.0,-999.0,85,0.00,,,0.00,WeatherSnoop3.0,2013-10-27 08:52:00,
2013-10-27 04:57:00,32.4,28.4,29.96,WSW,244,2.0,-999.0,85,0.00,,,0.00,WeatherSnoop3.0,2013-10-27 08:57:00,
2013-10-27 05:02:00,32.4,28.7,29.96,WSW,244,1.0,-999.0,86,0.00,,,0.00,WeatherSnoop3.0,2013-10-27 09:02:00,
2013-10-27 05:07:00,32.4,28.7,29.96,WSW,244,0.0,-999.0,86,0.00,,,0.00,WeatherSnoop3.0,2013-10-27 09:07:00,
2013-10-27 05:12:00,32.4,28.7,29.96,WSW,244,0.0,-999.0,86,0.00,,,0.00,WeatherSnoop3.0,2013-10-27 09:12:00,
2013-10-27 05:17:00,32.4,28.7,29.96,WSW,244,0.0,-999.0,86,0.00,,,0.00,WeatherSnoop3.0,2013-10-27 09:17:00,
2013-10-27 05:22:00,32.5,28.8,29.96,WSW,244,2.0,-999.0,86,0.00,,,0.00,WeatherSnoop3.0,2013-10-27 09:22:00,
2013-10-27 05:27:00,32.5,28.8,29.96,WSW,244,0.0,-999.0,86,0.00,,,0.00,WeatherSnoop3.0,2013-10-27 09:27:00,
2013-10-27 05:32:00,32.5,28.8,29.96,WSW,244,1.0,-999.0,86,0.00,,,0.00,WeatherSnoop3.0,2013-10-27 09:32:00,
2013-10-27 05:37:00,32.7,29.3,29.96,WSW,244,0.0,-999.0,87,0.00,,,0.00,WeatherSnoop3.0,2013-10-27 09:37:00,
2013-10-27 05:42:00,32.7,29.3,29.96,WSW,244,0.0,-999.0,87,0.00,,,0.00,WeatherSnoop3.0,2013-10-27 09:42:00,
2013-10-27 05:47:00,32.7,29.3,29.96,WSW,244,0.0,-999.0,87,0.00,,,0.00,WeatherSnoop3.0,2013-10-27 09:47:00,
2013-10-27 05:52:00,32.5,29.1,29.96,WSW,244,0.0,-999.0,87,0.00,,,0.00,WeatherSnoop3.0,2013-10-27 09:52:00,
2013-10-27 05:57:00,32.5,29.3,29.95,WSW,244,0.0,-999.0,88,0.00,,,0.00,WeatherSnoop3.0,2013-10-27 09:57:00,
2013-10-27 06:02:00,32.5,29.3,29.96,WSW,244,0.0,-999.0,88,0.00,,,0.00,WeatherSnoop3.0,2013-10-27 10:02:00,
2013-10-27 06:07:00,32.5,29.3,29.96,WSW,244,0.0,-999.0,88,0.00,,,0.00,WeatherSnoop3.0,2013-10-27 10:07:00,
2013-10-27 06:12:00,32.5,29.3,29.96,WSW,244,0.0,-999.0,88,0.00,,,0.00,WeatherSnoop3.0,2013-10-27 10:12:00,
2013-10-27 06:17:00,32.7,29.5,29.96,WSW,244,1.0,-999.0,88,0.00,,,0.00,WeatherSnoop3.0,2013-10-27 10:17:00,
2013-10-27 06:22:00,32.7,29.5,29.96,WSW,244,0.0,-999.0,88,0.00,,,0.00,WeatherSnoop3.0,2013-10-27 10:22:00,
2013-10-27 06:27:00,32.7,29.5,29.95,WSW,244,0.0,-999.0,88,0.00,,,0.00,WeatherSnoop3.0,2013-10-27 10:27:00,
2013-10-27 06:32:00,32.7,29.3,29.95,WSW,244,0.0,-999.0,87,0.00,,,0.00,WeatherSnoop3.0,2013-10-27 10:32:00,
2013-10-27 06:37:00,32.8,29.4,29.95,WSW,244,1.0,-999.0,87,0.00,,,0.00,WeatherSnoop3.0,2013-10-27 10:37:00,
2013-10-27 06:42:00,32.8,29.6,29.95,WSW,244,2.0,-999.0,88,0.00,,,0.00,WeatherSnoop3.0,2013-10-27 10:42:00,
2013-10-27 06:47:00,32.8,29.4,29.95,WSW,244,2.0,-999.0,87,0.00,,,0.00,WeatherSnoop3.0,2013-10-27 10:47:00,
2013-10-27 06:52:00,32.9,29.2,29.95,WSW,244,1.0,-999.0,86,0.00,,,0.00,WeatherSnoop3.0,2013-10-27 10:52:00,
2013-10-27 06:57:00,33.2,29.5,29.95,WSW,254,1.0,-999.0,86,0.00,,,0.00,WeatherSnoop3.0,2013-10-27 10:57:00,
2013-10-27 07:02:00,33.4,29.4,29.95,SW,229,2.0,-999.0,85,0.00,,,0.00,WeatherSnoop3.0,2013-10-27 11:02:00,
2013-10-27 07:07:00,33.7,29.4,29.95,SW,229,4.0,-999.0,84,0.00,,,0.00,WeatherSnoop3.0,2013-10-27 11:07:00,
2013-10-27 07:12:00,34.0,29.4,29.95,SW,235,1.0,-999.0,83,0.00,,,0.00,WeatherSnoop3.0,2013-10-27 11:12:00,
2013-10-27 07:17:00,34.1,29.5,29.95,SW,235,1.0,-999.0,83,0.00,,,0.00,WeatherSnoop3.0,2013-10-27 11:17:00,
2013-10-27 07:22:00,34.1,29.5,29.95,SW,235,1.0,-999.0,83,0.00,,,0.00,WeatherSnoop3.0,2013-10-27 11:22:00,
2013-10-27 07:27:00,34.1,29.5,29.95,SW,235,1.0,-999.0,83,0.00,,,0.00,WeatherSnoop3.0,2013-10-27 11:27:00,
2013-10-27 07:32:00,34.1,29.5,29.95,SW,235,1.0,-999.0,83,0.00,,,0.00,WeatherSnoop3.0,2013-10-27 11:32:00,
2013-10-27 07:37:00,34.1,29.5,29.95,SW,235,1.0,-999.0,83,0.00,,,0.00,WeatherSnoop3.0,2013-10-27 11:37:00,
2013-10-27 07:42:00,34.1,29.5,29.95,SW,235,1.0,-999.0,83,0.00,,,0.00,WeatherSnoop3.0,2013-10-27 11:42:00,
2013-10-27 07:47:00,34.1,29.5,29.95,SW,235,1.0,-999.0,83,0.00,,,0.00,WeatherSnoop3.0,2013-10-27 11:47:00,
2013-10-27 07:52:00,34.1,29.5,29.95,SW,235,1.0,-999.0,83,0.00,,,0.00,WeatherSnoop3.0,2013-10-27 11:52:00,
2013-10-27 07:57:00,34.1,29.5,29.95,SW,235,1.0,-999.0,83,0.00,,,0.00,WeatherSnoop3.0,2013-10-27 11:57:00,
2013-10-27 08:02:00,34.1,29.5,29.95,SW,235,1.0,-999.0,83,0.00,,,0.00,WeatherSnoop3.0,2013-10-27 12:02:00,
2013-10-27 08:07:00,34.1,29.5,29.95,SW,235,1.0,-999.0,83,0.00,,,0.00,WeatherSnoop3.0,2013-10-27 12:07:00,
2013-10-27 08:12:00,34.1,29.5,29.95,SW,235,1.0,-999.0,83,0.00,,,0.00,WeatherSnoop3.0,2013-10-27 12:12:00,
2013-10-27 11:26:00,40.1,32.2,29.93,South,191,3.0,-999.0,73,0.00,,,0.00,WeatherSnoop3.0,2013-10-27 15:26:00,
2013-10-27 11:31:00,40.6,32.3,29.93,SW,222,4.0,-999.0,72,0.00,,,0.00,WeatherSnoop3.0,2013-10-27 15:31:00,
2013-10-27 11:36:00,41.1,32.1,29.92,SSW,213,2.0,-999.0,70,0.00,,,0.00,WeatherSnoop3.0,2013-10-27 15:36:00,
2013-10-27 11:41:00,41.2,31.8,29.92,SW,226,5.0,-999.0,69,0.00,,,0.00,WeatherSnoop3.0,2013-10-27 15:41:00,
2013-10-27 11:46:00,41.3,31.5,29.92,WSW,255,2.0,-999.0,68,0.00,,,0.00,WeatherSnoop3.0,2013-10-27 15:46:00,
2013-10-27 11:51:00,41.5,31.7,29.91,SW,216,4.0,-999.0,68,0.00,,,0.00,WeatherSnoop3.0,2013-10-27 15:51:00,
2013-10-27 11:56:00,41.5,31.4,29.91,SW,223,4.0,-999.0,67,0.00,,,0.00,WeatherSnoop3.0,2013-10-27 15:56:00,
2013-10-27 12:01:00,41.6,31.1,29.91,SW,229,3.0,-999.0,66,0.00,,,0.00,WeatherSnoop3.0,2013-10-27 16:01:00,
2013-10-27 12:06:00,42.1,31.2,29.90,SSW,207,6.0,-999.0,65,0.00,,,0.00,WeatherSnoop3.0,2013-10-27 16:06:00,
2013-10-27 12:11:00,42.5,30.8,29.90,West,269,5.0,-999.0,63,0.00,,,0.00,WeatherSnoop3.0,2013-10-27 16:11:00,
2013-10-27 12:16:00,42.8,30.7,29.90,South,187,4.0,-999.0,62,0.00,,,0.00,WeatherSnoop3.0,2013-10-27 16:16:00,
2013-10-27 12:21:00,43.2,30.7,29.90,West,267,10.0,-999.0,61,0.00,,,0.00,WeatherSnoop3.0,2013-10-27 16:21:00,
2013-10-27 12:26:00,43.5,30.5,29.90,SSW,213,12.0,-999.0,60,0.00,,,0.00,WeatherSnoop3.0,2013-10-27 16:26:00,
2013-10-27 12:31:00,43.5,30.5,29.90,SW,233,6.0,-999.0,60,0.00,,,0.00,WeatherSnoop3.0,2013-10-27 16:31:00,
2013-10-27 12:36:00,43.5,30.5,29.90,WSW,258,4.0,-999.0,60,0.00,,,0.00,WeatherSnoop3.0,2013-10-27 16:36:00,
2013-10-27 12:41:00,43.8,30.8,29.90,SW,222,10.0,-999.0,60,0.00,,,0.00,WeatherSnoop3.0,2013-10-27 16:41:00,
2013-10-27 12:46:00,44.1,30.7,29.90,WSW,238,11.0,-999.0,59,0.00,,,0.00,WeatherSnoop3.0,2013-10-27 16:46:00,
2013-10-27 12:51:00,44.2,31.2,29.90,WSW,239,11.0,-999.0,60,0.00,,,0.00,WeatherSnoop3.0,2013-10-27 16:51:00,
2013-10-27 12:56:00,44.3,31.3,29.90,SSW,213,11.0,-999.0,60,0.00,,,0.00,WeatherSnoop3.0,2013-10-27 16:56:00,
2013-10-27 13:01:00,44.2,30.8,29.90,SSW,199,10.0,-999.0,59,0.00,,,0.00,WeatherSnoop3.0,2013-10-27 17:01:00,
2013-10-27 13:06:00,44.6,30.7,29.89,West,275,6.0,-999.0,58,0.00,,,0.00,WeatherSnoop3.0,2013-10-27 17:06:00,
2013-10-27 13:11:00,45.2,30.0,29.89,SW,229,7.0,-999.0,55,0.00,,,0.00,WeatherSnoop3.0,2013-10-27 17:11:00,
2013-10-27 13:16:00,45.8,31.0,29.89,SW,219,10.0,-999.0,56,0.00,,,0.00,WeatherSnoop3.0,2013-10-27 17:16:00,
2013-10-27 13:21:00,45.4,30.2,29.88,SSW,200,5.0,-999.0,55,0.00,,,0.00,WeatherSnoop3.0,2013-10-27 17:21:00,
2013-10-27 13:26:00,45.2,30.4,29.88,SW,234,9.0,-999.0,56,0.00,,,0.00,WeatherSnoop3.0,2013-10-27 17:26:00,
2013-10-27 13:31:00,45.2,30.9,29.88,SSW,199,10.0,-999.0,57,0.00,,,0.00,WeatherSnoop3.0,2013-10-27 17:31:00,
2013-10-27 13:36:00,45.4,30.2,29.88,SW,227,13.0,-999.0,55,0.00,,,0.00,WeatherSnoop3.0,2013-10-27 17:36:00,
2013-10-27 13:41:00,45.4,30.2,29.87,West,277,9.0,-999.0,55,0.00,,,0.00,WeatherSnoop3.0,2013-10-27 17:41:00,
2013-10-27 13:46:00,45.8,31.4,29.87,SSE,168,2.0,-999.0,57,0.00,,,0.00,WeatherSnoop3.0,2013-10-27 17:46:00,
2013-10-27 13:51:00,46.1,30.8,29.87,WSW,240,6.0,-999.0,55,0.00,,,0.00,WeatherSnoop3.0,2013-10-27 17:51:00,
2013-10-27 13:56:00,46.0,30.3,29.86,South,184,5.0,-999.0,54,0.00,,,0.00,WeatherSnoop3.0,2013-10-27 17:56:00,
2013-10-27 14:01:00,46.4,30.7,29.85,SSW,203,8.0,-999.0,54,0.00,,,0.00,WeatherSnoop3.0,2013-10-27 18:01:00,
2013-10-27 14:06:00,46.2,30.9,29.86,South,182,6.0,-999.0,55,0.00,,,0.00,WeatherSnoop3.0,2013-10-27 18:06:00,
2013-10-27 14:11:00,46.1,30.8,29.85,SW,218,10.0,-999.0,55,0.00,,,0.00,WeatherSnoop3.0,2013-10-27 18:11:00,
2013-10-27 14:16:00,46.1,30.8,29.85,South,188,5.0,-999.0,55,0.00,,,0.00,WeatherSnoop3.0,2013-10-27 18:16:00,
2013-10-27 14:21:00,46.1,30.4,29.84,SW,231,18.0,-999.0,54,0.00,,,0.00,WeatherSnoop3.0,2013-10-27 18:21:00,
2013-10-27 14:26:00,46.0,30.7,29.84,WSW,238,10.0,-999.0,55,0.00,,,0.00,WeatherSnoop3.0,2013-10-27 18:26:00,
2013-10-27 14:31:00,45.7,30.0,29.84,SW,235,9.0,-999.0,54,0.00,,,0.00,WeatherSnoop3.0,2013-10-27 18:31:00,
2013-10-27 14:36:00,45.7,30.5,29.84,West,263,10.0,-999.0,55,0.00,,,0.00,WeatherSnoop3.0,2013-10-27 18:36:00,
2013-10-27 14:41:00,46.0,30.3,29.84,WSW,242,10.0,-999.0,54,0.00,,,0.00,WeatherSnoop3.0,2013-10-27 18:41:00,
2013-10-27 14:46:00,46.0,30.7,29.84,SW,225,0.0,-999.0,55,0.00,,,0.00,WeatherSnoop3.0,2013-10-27 18:46:00,
2013-10-27 14:51:00,46.0,30.3,29.83,SW,223,3.0,-999.0,54,0.00,,,0.00,WeatherSnoop3.0,2013-10-27 18:51:00,
2013-10-27 14:56:00,46.2,30.5,29.84,WSW,254,9.0,-999.0,54,0.00,,,0.00,WeatherSnoop3.0,2013-10-27 18:56:00,
2013-10-27 15:01:00,47.3,30.6,29.83,WSW,247,2.0,-999.0,52,0.00,,,0.00,WeatherSnoop3.0,2013-10-27 19:01:00,
2013-10-27 15:06:00,47.6,31.3,29.83,WSW,246,7.0,-999.0,53,0.00,,,0.00,WeatherSnoop3.0,2013-10-27 19:06:00,
2013-10-27 15:11:00,47.7,30.9,29.83,WSW,247,5.0,-999.0,52,0.00,,,0.00,WeatherSnoop3.0,2013-10-27 19:11:00,
2013-10-27 15:16:00,48.2,31.9,29.83,West,279,6.0,-999.0,53,0.00,,,0.00,WeatherSnoop3.0,2013-10-27 19:16:00,
2013-10-27 15:21:00,48.2,30.9,29.83,SW,219,5.0,-999.0,51,0.00,,,0.00,WeatherSnoop3.0,2013-10-27 19:21:00,
2013-10-27 15:26:00,48.0,30.7,29.83,West,263,5.0,-999.0,51,0.00,,,0.00,WeatherSnoop3.0,2013-10-27 19:26:00,
2013-10-27 15:31:00,47.6,30.9,29.84,WSW,246,11.0,-999.0,52,0.00,,,0.00,WeatherSnoop3.0,2013-10-27 19:31:00,
2013-10-27 15:36:00,47.4,29.2,29.83,SW,220,2.0,-999.0,49,0.00,,,0.00,WeatherSnoop3.0,2013-10-27 19:36:00,
2013-10-27 15:41:00,47.1,30.4,29.83,SSW,212,4.0,-999.0,52,0.00,,,0.00,WeatherSnoop3.0,2013-10-27 19:41:00,
2013-10-27 15:46:00,47.3,30.6,29.83,South,180,3.0,-999.0,52,0.00,,,0.00,WeatherSnoop3.0,2013-10-27 19:46:00,
2013-10-27 15:51:00,47.6,30.9,29.83,SSW,192,12.0,-999.0,52,0.00,,,0.00,WeatherSnoop3.0,2013-10-27 19:51:00,
2013-10-27 15:56:00,47.7,30.9,29.83,South,191,2.0,-999.0,52,0.00,,,0.00,WeatherSnoop3.0,2013-10-27 19:56:00,
2013-10-27 16:01:00,47.7,31.4,29.83,SW,215,6.0,-999.0,53,0.00,,,0.00,WeatherSnoop3.0,2013-10-27 20:01:00,
2013-10-27 16:06:00,47.4,30.7,29.83,SSW,207,6.0,-999.0,52,0.00,,,0.00,WeatherSnoop3.0,2013-10-27 20:06:00,
2013-10-27 16:11:00,47.3,31.5,29.83,SSW,207,8.0,-999.0,54,0.00,,,0.00,WeatherSnoop3.0,2013-10-27 20:11:00,
2013-10-27 16:16:00,47.3,30.6,29.83,South,187,4.0,-999.0,52,0.00,,,0.00,WeatherSnoop3.0,2013-10-27 20:16:00,
2013-10-27 16:20:00,47.3,30.6,29.83,SSW,213,4.0,-999.0,52,0.00,,,0.00,WeatherSnoop3.0,2013-10-27 20:20:00,
2013-10-27 16:26:00,47.6,31.3,29.83,SSW,212,4.0,-999.0,53,0.00,,,0.00,WeatherSnoop3.0,2013-10-27 20:26:00,
2013-10-27 16:31:00,48.0,30.7,29.83,SSW,213,4.0,-999.0,51,0.00,,,0.00,WeatherSnoop3.0,2013-10-27 20:31:00,
2013-10-27 16:36:00,48.2,30.9,29.83,SW,236,4.0,-999.0,51,0.00,,,0.00,WeatherSnoop3.0,2013-10-27 20:36:00,
2013-10-27 16:41:00,47.9,30.7,29.83,SSW,202,7.0,-999.0,51,0.00,,,0.00,WeatherSnoop3.0,2013-10-27 20:41:00,
2013-10-27 16:46:00,47.6,30.9,29.83,SSW,198,5.0,-999.0,52,0.00,,,0.00,WeatherSnoop3.0,2013-10-27 20:46:00,
2013-10-27 16:51:00,47.4,31.1,29.84,South,186,2.0,-999.0,53,0.00,,,0.00,WeatherSnoop3.0,2013-10-27 20:51:00,
2013-10-27 16:56:00,48.0,30.7,29.84,South,180,6.0,-999.0,51,0.00,,,0.00,WeatherSnoop3.0,2013-10-27 20:56:00,
2013-10-27 17:01:00,48.2,30.9,29.84,SSW,209,3.0,-999.0,51,0.00,,,0.00,WeatherSnoop3.0,2013-10-27 21:01:00,
2013-10-27 17:06:00,48.0,30.7,29.84,SSW,197,4.0,-999.0,51,0.00,,,0.00,WeatherSnoop3.0,2013-10-27 21:06:00,
2013-10-27 17:11:00,47.9,30.7,29.85,SW,233,3.0,-999.0,51,0.00,,,0.00,WeatherSnoop3.0,2013-10-27 21:11:00,
2013-10-27 17:16:00,47.7,30.9,29.85,SW,234,2.0,-999.0,52,0.00,,,0.00,WeatherSnoop3.0,2013-10-27 21:16:00,
2013-10-27 17:21:00,47.6,30.9,29.85,SW,234,4.0,-999.0,52,0.00,,,0.00,WeatherSnoop3.0,2013-10-27 21:21:00,
2013-10-27 17:31:00,47.4,31.1,29.85,SSW,194,2.0,-999.0,53,0.00,,,0.00,WeatherSnoop3.0,2013-10-27 21:31:00,
2013-10-27 17:36:00,47.3,31.5,29.86,SSW,194,2.0,-999.0,54,0.00,,,0.00,WeatherSnoop3.0,2013-10-27 21:36:00,
2013-10-27 17:41:00,47.3,31.0,29.86,SSW,194,0.0,-999.0,53,0.00,,,0.00,WeatherSnoop3.0,2013-10-27 21:41:00,
2013-10-27 17:46:00,47.3,32.0,29.86,SSW,194,0.0,-999.0,55,0.00,,,0.00,WeatherSnoop3.0,2013-10-27 21:46:00,
2013-10-27 17:51:00,47.3,30.6,29.86,SSW,194,0.0,-999.0,52,0.00,,,0.00,WeatherSnoop3.0,2013-10-27 21:51:00,
2013-10-27 17:56:00,47.3,31.0,29.86,SSW,194,0.0,-999.0,53,0.00,,,0.00,WeatherSnoop3.0,2013-10-27 21:56:00,
2013-10-27 18:01:00,47.1,30.9,29.87,SW,227,1.0,-999.0,53,0.00,,,0.00,WeatherSnoop3.0,2013-10-27 22:01:00,
2013-10-27 18:06:00,47.1,30.9,29.87,SW,227,5.0,-999.0,53,0.00,,,0.00,WeatherSnoop3.0,2013-10-27 22:06:00,
2013-10-27 18:11:00,47.0,30.8,29.87,SW,227,1.0,-999.0,53,0.00,,,0.00,WeatherSnoop3.0,2013-10-27 22:11:00,
2013-10-27 18:16:00,46.8,30.6,29.87,SSW,200,3.0,-999.0,53,0.00,,,0.00,WeatherSnoop3.0,2013-10-27 22:16:00,
2013-10-27 18:21:00,46.7,30.9,29.87,SSW,200,1.0,-999.0,54,0.00,,,0.00,WeatherSnoop3.0,2013-10-27 22:21:00,
2013-10-27 18:26:00,46.4,31.1,29.87,SSW,200,0.0,-999.0,55,0.00,,,0.00,WeatherSnoop3.0,2013-10-27 22:26:00,
2013-10-27 18:31:00,46.2,32.7,29.88,SSW,200,0.0,-999.0,59,0.00,,,0.00,WeatherSnoop3.0,2013-10-27 22:31:00,
2013-10-27 18:36:00,45.8,31.9,29.87,SSW,200,2.0,-999.0,58,0.00,,,0.00,WeatherSnoop3.0,2013-10-27 22:36:00,
2013-10-27 18:41:00,45.7,31.8,29.88,SSW,200,0.0,-999.0,58,0.00,,,0.00,WeatherSnoop3.0,2013-10-27 22:41:00,
2013-10-27 18:46:00,45.5,33.2,29.88,SSW,200,0.0,-999.0,62,0.00,,,0.00,WeatherSnoop3.0,2013-10-27 22:46:00,
2013-10-27 18:51:00,45.2,33.4,29.88,SSW,200,0.0,-999.0,63,0.00,,,0.00,WeatherSnoop3.0,2013-10-27 22:51:00,
2013-10-27 18:56:00,44.9,34.2,29.88,SSW,200,0.0,-999.0,66,0.00,,,0.00,WeatherSnoop3.0,2013-10-27 22:56:00,
2013-10-27 19:01:00,44.5,34.2,29.88,SSW,200,0.0,-999.0,67,0.00,,,0.00,WeatherSnoop3.0,2013-10-27 23:01:00,
2013-10-27 19:06:00,44.2,34.3,29.89,SSW,200,0.0,-999.0,68,0.00,,,0.00,WeatherSnoop3.0,2013-10-27 23:06:00,
2013-10-27 19:11:00,44.1,34.2,29.89,SSW,200,0.0,-999.0,68,0.00,,,0.00,WeatherSnoop3.0,2013-10-27 23:11:00,
2013-10-27 19:16:00,43.9,34.4,29.89,SSW,200,0.0,-999.0,69,0.00,,,0.00,WeatherSnoop3.0,2013-10-27 23:16:00,
2013-10-27 19:21:00,43.6,33.7,29.89,SSW,200,0.0,-999.0,68,0.00,,,0.00,WeatherSnoop3.0,2013-10-27 23:21:00,
2013-10-27 19:26:00,43.3,34.2,29.89,SSW,200,0.0,-999.0,70,0.00,,,0.00,WeatherSnoop3.0,2013-10-27 23:26:00,
2013-10-27 19:31:00,43.2,34.1,29.90,SSW,200,0.0,-999.0,70,0.00,,,0.00,WeatherSnoop3.0,2013-10-27 23:31:00,
2013-10-27 19:36:00,43.1,34.7,29.90,SSW,200,0.0,-999.0,72,0.00,,,0.00,WeatherSnoop3.0,2013-10-27 23:36:00,
2013-10-27 19:41:00,42.9,34.5,29.91,SSW,200,0.0,-999.0,72,0.00,,,0.00,WeatherSnoop3.0,2013-10-27 23:41:00,
2013-10-27 19:46:00,42.8,34.4,29.91,SSW,200,0.0,-999.0,72,0.00,,,0.00,WeatherSnoop3.0,2013-10-27 23:46:00,
2013-10-27 19:50:00,42.8,34.8,29.91,SSW,200,0.0,-999.0,73,0.00,,,0.00,WeatherSnoop3.0,2013-10-27 23:50:00,
2013-10-27 19:56:00,42.6,35.2,29.91,SSW,200,0.0,-999.0,75,0.00,,,0.00,WeatherSnoop3.0,2013-10-27 23:56:00,
2013-10-27 20:01:00,42.5,34.8,29.91,SSW,200,0.0,-999.0,74,0.00,,,0.00,WeatherSnoop3.0,2013-10-28 00:01:00,
2013-10-27 20:06:00,42.3,35.0,29.92,SSW,200,0.0,-999.0,75,0.00,,,0.00,WeatherSnoop3.0,2013-10-28 00:06:00,
2013-10-27 20:11:00,42.3,35.0,29.92,SSW,200,0.0,-999.0,75,0.00,,,0.00,WeatherSnoop3.0,2013-10-28 00:11:00,
2013-10-27 20:16:00,42.2,35.2,29.93,SSW,200,0.0,-999.0,76,0.00,,,0.00,WeatherSnoop3.0,2013-10-28 00:16:00,
2013-10-27 20:21:00,42.1,34.8,29.93,NE,46,0.0,-999.0,75,0.00,,,0.00,WeatherSnoop3.0,2013-10-28 00:21:00,
2013-10-27 20:26:00,42.1,34.4,29.93,NNE,30,0.0,-999.0,74,0.00,,,0.00,WeatherSnoop3.0,2013-10-28 00:26:00,
2013-10-27 20:31:00,42.1,34.1,29.94,North,360,0.0,-999.0,73,0.00,,,0.00,WeatherSnoop3.0,2013-10-28 00:31:00,
2013-10-27 20:36:00,42.2,33.8,29.94,North,5,0.0,-999.0,72,0.00,,,0.00,WeatherSnoop3.0,2013-10-28 00:36:00,
2013-10-27 20:41:00,42.3,33.6,29.95,North,9,0.0,-999.0,71,0.00,,,0.00,WeatherSnoop3.0,2013-10-28 00:41:00,
2013-10-27 20:46:00,42.5,33.1,29.95,North,5,0.0,-999.0,69,0.00,,,0.00,WeatherSnoop3.0,2013-10-28 00:46:00,
2013-10-27 20:51:00,42.6,32.8,29.96,NNW,329,1.0,-999.0,68,0.00,,,0.00,WeatherSnoop3.0,2013-10-28 00:51:00,
2013-10-27 20:56:00,42.6,32.8,29.96,NNE,19,0.0,-999.0,68,0.00,,,0.00,WeatherSnoop3.0,2013-10-28 00:56:00,
2013-10-27 21:01:00,42.6,32.4,29.97,NE,40,2.0,-999.0,67,0.00,,,0.00,WeatherSnoop3.0,2013-10-28 01:01:00,
2013-10-27 21:06:00,42.8,32.6,29.97,North,355,3.0,-999.0,67,0.00,,,0.00,WeatherSnoop3.0,2013-10-28 01:06:00,
2013-10-27 21:11:00,42.6,32.8,29.97,North,350,1.0,-999.0,68,0.00,,,0.00,WeatherSnoop3.0,2013-10-28 01:11:00,
2013-10-27 21:16:00,42.6,32.4,29.98,NW,314,1.0,-999.0,67,0.00,,,0.00,WeatherSnoop3.0,2013-10-28 01:16:00,
2013-10-27 21:21:00,42.6,32.4,29.98,NNW,342,6.0,-999.0,67,0.00,,,0.00,WeatherSnoop3.0,2013-10-28 01:21:00,
2013-10-27 21:26:00,42.6,32.4,29.99,NNW,334,2.0,-999.0,67,0.00,,,0.00,WeatherSnoop3.0,2013-10-28 01:26:00,
2013-10-27 21:31:00,42.6,32.4,29.99,NNW,336,0.0,-999.0,67,0.00,,,0.00,WeatherSnoop3.0,2013-10-28 01:31:00,
2013-10-27 21:36:00,42.5,32.7,29.99,NW,321,1.0,-999.0,68,0.00,,,0.00,WeatherSnoop3.0,2013-10-28 01:36:00,
2013-10-27 21:40:00,42.5,33.1,30.00,North,9,1.0,-999.0,69,0.00,,,0.00,WeatherSnoop3.0,2013-10-28 01:40:00,
2013-10-27 21:46:00,42.3,32.9,30.00,North,9,1.0,-999.0,69,0.00,,,0.00,WeatherSnoop3.0,2013-10-28 01:46:00,
2013-10-27 21:51:00,42.3,32.9,30.01,NW,325,2.0,-999.0,69,0.00,,,0.00,WeatherSnoop3.0,2013-10-28 01:51:00,
2013-10-27 21:56:00,42.2,33.1,30.01,North,355,1.0,-999.0,70,0.00,,,0.00,WeatherSnoop3.0,2013-10-28 01:56:00,
2013-10-27 22:00:00,42.2,33.1,30.01,NNW,331,1.0,-999.0,70,0.00,,,0.00,WeatherSnoop3.0,2013-10-28 02:00:00,
2013-10-27 22:06:00,42.2,32.8,30.02,NW,309,2.0,-999.0,69,0.00,,,0.00,WeatherSnoop3.0,2013-10-28 02:06:00,
2013-10-27 22:11:00,42.2,33.1,30.02,NW,324,0.0,-999.0,70,0.00,,,0.00,WeatherSnoop3.0,2013-10-28 02:11:00,
2013-10-27 22:16:00,42.1,33.0,30.02,NW,311,0.0,-999.0,70,0.00,,,0.00,WeatherSnoop3.0,2013-10-28 02:16:00,
2013-10-27 22:21:00,42.1,33.0,30.02,NW,323,1.0,-999.0,70,0.00,,,0.00,WeatherSnoop3.0,2013-10-28 02:21:00,
2013-10-27 22:26:00,42.1,33.0,30.03,NW,310,2.0,-999.0,70,0.00,,,0.00,WeatherSnoop3.0,2013-10-28 02:26:00,
2013-10-27 22:31:00,42.1,33.0,30.03,NW,319,1.0,-999.0,70,0.00,,,0.00,WeatherSnoop3.0,2013-10-28 02:31:00,
2013-10-27 22:36:00,42.1,33.0,30.03,NNW,342,1.0,-999.0,70,0.00,,,0.00,WeatherSnoop3.0,2013-10-28 02:36:00,
2013-10-27 22:41:00,42.1,33.4,30.04,North,9,5.0,-999.0,71,0.00,,,0.00,WeatherSnoop3.0,2013-10-28 02:41:00,
2013-10-27 22:46:00,41.9,33.9,30.05,NNW,338,0.0,-999.0,73,0.00,,,0.00,WeatherSnoop3.0,2013-10-28 02:46:00,
2013-10-27 22:51:00,41.8,34.5,30.05,NNW,327,2.0,-999.0,75,0.00,,,0.00,WeatherSnoop3.0,2013-10-28 02:51:00,
2013-10-27 22:56:00,41.5,34.8,30.05,NNW,331,0.0,-999.0,77,0.00,,,0.00,WeatherSnoop3.0,2013-10-28 02:56:00,
2013-10-27 23:01:00,41.1,34.4,30.05,NNW,329,4.0,-999.0,77,0.00,,,0.00,WeatherSnoop3.0,2013-10-28 03:01:00,
2013-10-27 23:06:00,40.8,34.5,30.06,NNW,337,2.0,-999.0,78,0.00,,,0.00,WeatherSnoop3.0,2013-10-28 03:06:00,
2013-10-27 23:11:00,40.3,34.3,30.06,NE,38,2.0,-999.0,79,0.00,,,0.00,WeatherSnoop3.0,2013-10-28 03:11:00,
2013-10-27 23:16:00,40.2,34.2,30.06,North,5,3.0,-999.0,79,0.00,,,0.00,WeatherSnoop3.0,2013-10-28 03:16:00,
2013-10-27 23:21:00,39.9,33.9,30.07,NW,323,1.0,-999.0,79,0.00,,,0.00,WeatherSnoop3.0,2013-10-28 03:21:00,
2013-10-27 23:26:00,39.9,34.2,30.07,NNW,331,0.0,-999.0,80,0.00,,,0.00,WeatherSnoop3.0,2013-10-28 03:26:00,
2013-10-27 23:31:00,39.9,34.2,30.07,WNW,292,1.0,-999.0,80,0.00,,,0.00,WeatherSnoop3.0,2013-10-28 03:31:00,
2013-10-27 23:36:00,39.9,34.2,30.08,NNW,343,9.0,-999.0,80,0.00,,,0.00,WeatherSnoop3.0,2013-10-28 03:36:00,
2013-10-27 23:40:00,39.9,34.2,30.08,NNW,336,2.0,-999.0,80,0.00,,,0.00,WeatherSnoop3.0,2013-10-28 03:40:00,
2013-10-27 23:46:00,40.1,34.4,30.09,NNW,328,3.0,-999.0,80,0.00,,,0.00,WeatherSnoop3.0,2013-10-28 03:46:00,
2013-10-27 23:50:00,40.1,34.7,30.09,WNW,295,0.0,-999.0,81,0.00,,,0.00,WeatherSnoop3.0,2013-10-28 03:50:00,
2013-10-27 23:55:00,39.9,34.6,30.09,NNE,27,9.0,-999.0,81,0.00,,,0.00,WeatherSnoop3.0,2013-10-28 03:55:00,